SL-14 DEB

Satellite information

Favourite Embed

Satellite Type and Status

DEBRISIN ORBIT

Key statistics

Satellite SL-14 DEB at a glance.

Uptime

17175

Days in orbit

Revolutions

≈ 12.1

Per day

Orbit

MEO

Medium Earth Orbit

Inclination

82.0

Latest

Satellite identification and parameters

Extended collection of information and parameters for SL-14 DEB.

Object identification

Identified? True

Debris? True

Object name: SL-14 DEB

International designator: 1978-100AE

Object number (NORAD): 19295

Object ID (CCSDS): 19295

Country: COMMONWEALTH OF INDEPENDENT STATES (CIS)

Current information (Y/N): Y

RCS size: SMALL

Orbital parameters

Period: 119.305 minutes

Inclination: 81.983 deg

SMA: 8027.847 km

Apoapsis: 2053.983 km

Periapsis: 1245.441 km

RAAN: 146.5944 deg

Eccentricy: 0.05035856

Argument of periapsis: 351.1298 deg

Mean anomaly: 19.9341 deg

Mean motion: 12.06991288 rev/day

Mean motion (dot): 0.00000305 rev/day2

B* drag term: 0.0023158613 1/REarth

Two-line elements (TLE)

Creation date: Nov. 2, 2025, 5:34 p.m.

Reference frame: TEME

Reference center: EARTH

Epoch: Nov. 1, 2025, 7:14 p.m. UTC

TLE line 0: 0 SL-14 DEB

TLE line 1: 1 19295U 78100AE 25305.80168081 .00000305 00000-0 23159-2 0 9999

TLE line 2: 2 19295 81.9830 146.5944 0503586 351.1298 19.9341 12.06991288645723

Live tracking on map

Real-time ground track for satellite SL-14 DEB.

In-orbit conjunctions

A list of the most updated potential collisions computed for object SL-14 DEB.

Target Orbit TCA Probability of collision Miss distance Type
COSMOS 1194 LEO 2024-11-29 14:26:58 0.0001620416 701.0 (m) PAYLOAD

Associated space launch

Mass model of the Meteor-2 meteorological satellite

SL-14 DEB was lifted into orbit during the mission ‘Tsiklon-3 | Meteor-2-GVM’, on board a Tsiklon-3 space rocket.

The launch took place on Oct. 26, 1978, 7 a.m. from 32/2.

For more information about the launch, click the button.

Launch to space Tsiklon-3 | Meteor-2-GVM
Tsiklon-3 | Meteor-2-GVM

Agency: N/A

Status: Launch Successful

Launch date: Oct. 26, 1978, 7 a.m. UTC

Rocket: Tsiklon-3

Launch pad: 32/2

Location: Plesetsk Cosmodrome, Russian Federation

...

Latest news about this satellite

There are no fresh news available about this satellite. Check back as we update our databases every day.


Newsletter sign-up

Weekly statistics, charts and insights to help you stay on top of the space industry.